Location: Caltech
(34.1382°N, 118.1253°W)
Time: 16:08:34
(UTC-07:00)

AO-27 - Visible Passes

Search period start: 02 July 2015 00:00
Search period end: 12 July 2015 00:00
Orbit: 787 x 797 km, 98.7° (Epoch: 01 July)

Date Brightness Start Highest point End Pass type
(mag) Time Alt. Az. Time Alt. Az. Time Alt. Az.
02 Jul 8.9 02:40:41 10° NE 02:45:18 32° E 02:46:25 29° ESE visible
02 Jul 8.9 04:20:23 10° NNW 04:24:42 26° WNW 04:27:10 18° WSW visible
03 Jul 9.8 02:13:00 10° NE 02:16:04 16° E 02:17:05 16° ESE visible
03 Jul 8.0 03:50:53 10° N 03:55:56 49° WNW 03:57:51 33° SW visible
04 Jul 7.6 03:21:49 10° NNE 03:27:04 85° E 03:28:31 49° S visible
04 Jul 9.8 05:05:22 10° WNW 05:05:58 10° WNW 05:06:12 10° WNW visible
05 Jul 8.5 02:53:08 10° NNE 02:58:05 43° E 02:59:12 38° SE visible
05 Jul 9.2 04:33:32 10° NNW 04:37:20 20° WNW 04:39:58 14° WSW visible
06 Jul 9.4 02:25:02 10° NE 02:28:56 22° E 02:29:52 21° ESE visible
06 Jul 8.4 04:03:47 10° N 04:08:35 37° WNW 04:10:38 27° WSW visible
07 Jul 10.2 01:58:54 10° E 01:59:36 10° E 02:00:32 10° E visible
07 Jul 7.6 03:34:32 10° N 03:39:46 73° WNW 03:41:18 46° SW visible
08 Jul 8.0 03:05:41 10° NNE 03:10:50 58° E 03:11:58 47° SSE visible
08 Jul 9.5 04:46:55 10° NNW 04:49:55 15° WNW 04:52:41 10° W visible
09 Jul 9.0 02:37:18 10° NE 02:41:45 29° E 02:42:38 28° ESE visible
09 Jul 8.8 04:16:47 10° NNW 04:21:13 28° WNW 04:23:24 21° WSW visible
10 Jul 9.9 02:09:48 10° ENE 02:12:31 15° E 02:13:18 14° ESE visible
10 Jul 7.9 03:47:20 10° N 03:52:26 54° WNW 03:54:04 38° SW visible
11 Jul 7.6 03:18:19 10° NNE 03:23:33 78° ESE 03:24:43 54° S visible
11 Jul 9.7 05:00:51 10° NW 05:02:31 11° WNW 05:03:48 10° W visible
